Time,TemperatureF,DewpointF,PressureIn,WindDirection,WindDirectionDegrees,WindSpeedMPH,WindSpeedGustMPH,Humidity,HourlyPrecipIn,Conditions,Clouds,dailyrainin,SolarRadiationWatts/m^2,SoftwareType,DateUTC
2013-08-23 00:01:00,61.0,52.0,-100.00,East,101,2.0,8.0,71,0.00,,,0.01,1.000000,,2013-08-23 07:01:00,
2013-08-23 00:02:00,60.0,51.0,-100.00,SE,124,2.0,4.0,71,0.00,,,0.01,1.000000,,2013-08-23 07:02:00,
2013-08-23 00:42:00,60.0,51.0,-100.00,SE,124,2.0,4.0,71,0.00,,,0.01,1.000000,,2013-08-23 07:42:00,
2013-08-23 00:52:00,60.0,51.0,-100.00,SE,124,2.0,4.0,71,0.00,,,0.01,1.000000,,2013-08-23 07:52:00,
2013-08-23 01:42:00,59.0,52.0,-100.00,SSW,203,7.0,11.0,78,0.00,,,0.01,1.000000,,2013-08-23 08:42:00,
2013-08-23 01:52:00,59.0,52.0,-100.00,SSW,203,7.0,11.0,78,0.00,,,0.01,1.000000,,2013-08-23 08:52:00,
2013-08-23 02:01:00,59.0,52.0,-100.00,SSW,203,7.0,11.0,78,0.00,,,0.01,1.000000,,2013-08-23 09:01:00,
2013-08-23 02:02:00,60.0,51.0,-100.00,SSW,202,5.0,8.0,71,0.00,,,0.01,1.000000,,2013-08-23 09:02:00,
2013-08-23 02:43:00,60.0,51.0,-100.00,SSW,202,5.0,8.0,71,0.00,,,0.01,1.000000,,2013-08-23 09:43:00,
2013-08-23 02:53:00,60.0,51.0,-100.00,SSW,202,5.0,8.0,71,0.00,,,0.01,1.000000,,2013-08-23 09:53:00,
2013-08-23 03:02:00,58.0,51.0,-100.00,SW,227,4.0,5.0,78,0.00,,,0.01,1.000000,,2013-08-23 10:02:00,
2013-08-23 03:42:00,58.0,51.0,-100.00,SW,227,4.0,5.0,78,0.00,,,0.01,1.000000,,2013-08-23 10:42:00,
2013-08-23 03:52:00,58.0,51.0,-100.00,SW,227,4.0,5.0,78,0.00,,,0.01,1.000000,,2013-08-23 10:52:00,
2013-08-23 04:42:00,57.0,49.0,-100.00,SSW,195,8.0,10.0,75,0.00,,,0.01,1.000000,,2013-08-23 11:42:00,
2013-08-23 04:53:00,57.0,49.0,-100.00,SSW,195,8.0,10.0,75,0.00,,,0.01,1.000000,,2013-08-23 11:53:00,
2013-08-23 05:01:00,57.0,49.0,-100.00,SSW,195,8.0,10.0,75,0.00,,,0.01,1.000000,,2013-08-23 12:01:00,
2013-08-23 05:02:00,59.0,50.0,-100.00,SSW,212,8.0,13.0,71,0.00,,,0.01,1.000000,,2013-08-23 12:02:00,
2013-08-23 05:22:00,59.0,50.0,-100.00,SSW,212,8.0,13.0,71,0.00,,,0.01,1.000000,,2013-08-23 12:22:00,
2013-08-23 05:32:00,59.0,50.0,-100.00,SSW,212,8.0,13.0,71,0.00,,,0.01,1.000000,,2013-08-23 12:32:00,
2013-08-23 05:42:00,59.0,50.0,-100.00,SSW,212,8.0,13.0,71,0.00,,,0.01,1.000000,,2013-08-23 12:42:00,
2013-08-23 05:52:00,59.0,50.0,-100.00,SSW,212,8.0,13.0,71,0.00,,,0.01,1.000000,,2013-08-23 12:52:00,
2013-08-23 06:02:00,57.0,51.0,-100.00,SSW,213,5.0,12.0,80,0.00,,,0.01,1.000000,,2013-08-23 13:02:00,
2013-08-23 06:42:00,57.0,51.0,-100.00,SSW,213,5.0,12.0,80,0.00,,,0.01,1.000000,,2013-08-23 13:42:00,
2013-08-23 06:52:00,57.0,51.0,-100.00,SSW,213,5.0,12.0,80,0.00,,,0.01,1.000000,,2013-08-23 13:52:00,
2013-08-23 07:42:00,56.0,50.0,-100.00,WSW,243,5.0,9.0,80,0.00,,,0.01,8.000000,,2013-08-23 14:42:00,
2013-08-23 07:52:00,56.0,50.0,-100.00,WSW,243,5.0,9.0,80,0.00,,,0.01,8.000000,,2013-08-23 14:52:00,
2013-08-23 08:01:00,56.0,50.0,-100.00,WSW,243,5.0,9.0,80,0.00,,,0.01,8.000000,,2013-08-23 15:01:00,
2013-08-23 08:02:00,65.0,51.0,-100.00,SW,218,5.0,12.0,60,0.00,,,0.01,128.000000,,2013-08-23 15:02:00,
2013-08-23 08:44:00,65.0,51.0,-100.00,SW,218,5.0,12.0,60,0.00,,,0.01,128.000000,,2013-08-23 15:44:00,
2013-08-23 08:54:00,65.0,51.0,-100.00,SW,218,5.0,12.0,60,0.00,,,0.01,128.000000,,2013-08-23 15:54:00,
2013-08-23 09:02:00,66.0,53.0,-100.00,WSW,254,5.0,9.0,63,0.00,,,0.01,308.000000,,2013-08-23 16:02:00,
2013-08-23 09:42:00,66.0,53.0,-100.00,WSW,254,5.0,9.0,63,0.00,,,0.01,308.000000,,2013-08-23 16:42:00,
2013-08-23 09:53:00,66.0,53.0,-100.00,WSW,254,5.0,9.0,63,0.00,,,0.01,308.000000,,2013-08-23 16:53:00,
2013-08-23 10:02:00,70.0,50.0,-100.00,SSE,166,6.0,12.0,50,0.00,,,0.01,491.000000,,2013-08-23 17:02:00,
2013-08-23 10:24:00,70.0,50.0,-100.00,SSE,166,6.0,12.0,50,0.00,,,0.01,491.000000,,2013-08-23 17:24:00,
2013-08-23 10:34:00,70.0,50.0,-100.00,SSE,166,6.0,12.0,50,0.00,,,0.01,491.000000,,2013-08-23 17:34:00,
2013-08-23 10:43:00,70.0,50.0,-100.00,SSE,166,6.0,12.0,50,0.00,,,0.01,491.000000,,2013-08-23 17:43:00,
2013-08-23 10:53:00,70.0,50.0,-100.00,SSE,166,6.0,12.0,50,0.00,,,0.01,491.000000,,2013-08-23 17:53:00,
2013-08-23 11:42:00,72.0,49.0,-100.00,SSE,162,7.0,12.0,44,0.00,,,0.01,650.000000,,2013-08-23 18:42:00,
2013-08-23 11:52:00,72.0,49.0,-100.00,SSE,162,7.0,12.0,44,0.00,,,0.01,650.000000,,2013-08-23 18:52:00,
2013-08-23 12:01:00,72.0,49.0,-100.00,SSE,162,7.0,12.0,44,0.00,,,0.01,650.000000,,2013-08-23 19:01:00,
2013-08-23 12:22:00,75.0,48.0,-100.00,WNW,285,5.0,15.0,39,0.00,,,0.01,775.000000,,2013-08-23 19:22:00,
2013-08-23 12:32:00,75.0,48.0,-100.00,WNW,285,5.0,15.0,39,0.00,,,0.01,775.000000,,2013-08-23 19:32:00,
2013-08-23 12:42:00,75.0,48.0,-100.00,WNW,285,5.0,15.0,39,0.00,,,0.01,775.000000,,2013-08-23 19:42:00,
2013-08-23 12:52:00,75.0,48.0,-100.00,WNW,285,5.0,15.0,39,0.00,,,0.01,775.000000,,2013-08-23 19:52:00,
2013-08-23 13:01:00,75.0,48.0,-100.00,WNW,285,5.0,15.0,39,0.00,,,0.01,775.000000,,2013-08-23 20:01:00,
2013-08-23 13:02:00,78.0,47.0,-100.00,SW,219,4.0,11.0,33,0.00,,,0.01,855.000000,,2013-08-23 20:02:00,
2013-08-23 13:42:00,78.0,47.0,-100.00,SW,219,4.0,11.0,33,0.00,,,0.01,855.000000,,2013-08-23 20:42:00,
2013-08-23 13:52:00,78.0,47.0,-100.00,SW,219,4.0,11.0,33,0.00,,,0.01,855.000000,,2013-08-23 20:52:00,
2013-08-23 14:02:00,80.0,45.0,-100.00,SW,214,5.0,15.0,29,0.00,,,0.01,875.000000,,2013-08-23 21:02:00,
2013-08-23 14:44:00,80.0,45.0,-100.00,SW,214,5.0,15.0,29,0.00,,,0.01,875.000000,,2013-08-23 21:44:00,
2013-08-23 14:54:00,80.0,45.0,-100.00,SW,214,5.0,15.0,29,0.00,,,0.01,875.000000,,2013-08-23 21:54:00,
2013-08-23 15:02:00,80.0,48.0,-100.00,NNW,336,7.0,23.0,33,0.00,,,0.01,712.000000,,2013-08-23 22:02:00,
2013-08-23 15:43:00,80.0,48.0,-100.00,NNW,336,7.0,23.0,33,0.00,,,0.01,712.000000,,2013-08-23 22:43:00,
2013-08-23 15:53:00,80.0,48.0,-100.00,NNW,336,7.0,23.0,33,0.00,,,0.01,712.000000,,2013-08-23 22:53:00,
2013-08-23 16:02:00,81.0,48.0,-100.00,NW,305,8.0,15.0,32,0.00,,,0.01,542.000000,,2013-08-23 23:02:00,
2013-08-23 16:43:00,81.0,48.0,-100.00,NW,305,8.0,15.0,32,0.00,,,0.01,542.000000,,2013-08-23 23:43:00,
2013-08-23 16:54:00,81.0,48.0,-100.00,NW,305,8.0,15.0,32,0.00,,,0.01,542.000000,,2013-08-23 23:54:00,
2013-08-23 17:02:00,80.0,47.0,-100.00,NNW,347,7.0,17.0,31,0.00,,,0.01,581.000000,,2013-08-24 00:02:00,
2013-08-23 17:22:00,80.0,47.0,-100.00,NNW,347,7.0,17.0,31,0.00,,,0.01,581.000000,,2013-08-24 00:22:00,
2013-08-23 17:32:00,80.0,47.0,-100.00,NNW,347,7.0,17.0,31,0.00,,,0.01,581.000000,,2013-08-24 00:32:00,
2013-08-23 17:43:00,80.0,47.0,-100.00,NNW,347,7.0,17.0,31,0.00,,,0.01,581.000000,,2013-08-24 00:43:00,
2013-08-23 17:53:00,80.0,47.0,-100.00,NNW,347,7.0,17.0,31,0.00,,,0.01,581.000000,,2013-08-24 00:53:00,
2013-08-23 18:02:00,79.0,41.0,-100.00,WNW,299,9.0,16.0,26,0.00,,,0.00,399.000000,,2013-08-24 01:02:00,
2013-08-23 18:42:00,79.0,41.0,-100.00,WNW,299,9.0,16.0,26,0.00,,,0.00,399.000000,,2013-08-24 01:42:00,
2013-08-23 18:53:00,79.0,41.0,-100.00,WNW,299,9.0,16.0,26,0.00,,,0.00,399.000000,,2013-08-24 01:53:00,
2013-08-23 19:02:00,76.0,42.0,-100.00,WNW,298,8.0,20.0,30,0.00,,,0.00,224.000000,,2013-08-24 02:02:00,
2013-08-23 19:42:00,76.0,42.0,-100.00,WNW,298,8.0,20.0,30,0.00,,,0.00,224.000000,,2013-08-24 02:42:00,
2013-08-23 19:52:00,76.0,42.0,-100.00,WNW,298,8.0,20.0,30,0.00,,,0.00,224.000000,,2013-08-24 02:52:00,
2013-08-23 20:02:00,71.0,45.0,-100.00,WNW,296,8.0,12.0,39,0.00,,,0.00,54.000000,,2013-08-24 03:02:00,
2013-08-23 20:44:00,71.0,45.0,-100.00,WNW,296,8.0,12.0,39,0.00,,,0.00,54.000000,,2013-08-24 03:44:00,
2013-08-23 20:54:00,71.0,45.0,-100.00,WNW,296,8.0,12.0,39,0.00,,,0.00,54.000000,,2013-08-24 03:54:00,
2013-08-23 21:02:00,69.0,46.0,-100.00,NW,326,7.0,11.0,44,0.00,,,0.00,1.000000,,2013-08-24 04:02:00,
2013-08-23 21:44:00,69.0,46.0,-100.00,NW,326,7.0,11.0,44,0.00,,,0.00,1.000000,,2013-08-24 04:44:00,
2013-08-23 21:53:00,69.0,46.0,-100.00,NW,326,7.0,11.0,44,0.00,,,0.00,1.000000,,2013-08-24 04:53:00,
2013-08-23 22:02:00,63.0,48.0,-100.00,NNE,19,2.0,9.0,58,0.00,,,0.00,1.000000,,2013-08-24 05:02:00,
2013-08-23 22:43:00,63.0,48.0,-100.00,NNE,19,2.0,9.0,58,0.00,,,0.00,1.000000,,2013-08-24 05:43:00,
2013-08-23 22:53:00,63.0,48.0,-100.00,NNE,19,2.0,9.0,58,0.00,,,0.00,1.000000,,2013-08-24 05:53:00,
2013-08-23 23:02:00,60.0,49.0,-100.00,NNE,28,6.0,10.0,68,0.00,,,0.00,1.000000,,2013-08-24 06:02:00,
2013-08-23 23:42:00,60.0,49.0,-100.00,NNE,28,6.0,10.0,68,0.00,,,0.00,1.000000,,2013-08-24 06:42:00,
2013-08-23 23:52:00,60.0,49.0,-100.00,NNE,28,6.0,10.0,68,0.00,,,0.00,1.000000,,2013-08-24 06:52:00,